Back to catalog

ONEWEB-0235

AliveCommunicationsPO
NORAD 48771·PAYLOAD·🇬🇧 United Kingdom

Launched May 28, 2021 from Vostochny Cosmodrome

Loading…

Next Passes (next 24 hours)

TLE

FreshSource: CelesTrak SupGP

Epoch: Sep 14, 2026, 17:32 UTC

1 48771C 21045E   26257.73108056  .00001810  00000+0  48140-2 0  2576
2 48771  87.8987 241.3419 0002160  75.1161 319.2867 13.15545411    17

Track ONEWEB-0235 in real time with AllMySat

Download on the App Store